Temperature
-5 -5 -6 -7 -8 -9 -10 -10 -11 -11 -12 -12 -12 -12 -11 -11 -11 -11 -11 -11 -11 -11 -11 -10 -10 -10 -10 -10 -9 -9 -9 -9 -8 -8 -7 -6 -6 -5 -5 -4 -3 -1 1
-5 -5 -6 -7 -8 -9 -9 -10 -11 -11 -12 -12 -12 -12 -11 -11 -11 -11 -11 -11 -11 -11 -11 -11 -11 -10 -10 -10 -10 -9 -9 -9 -9 -8 -8 -7 -6 -6 -5 -4 -3 -1 0
-5 -5 -6 -7 -8 -9 -9 -10 -11 -11 -12 -12 -12 -12 -12 -11 -11 -12 -12 -11 -12 -12 -12 -12 -12 -11 -11 -10 -10 -10 -10 -9 -9 -9 -8 -8 -7 -6 -5 -4 -2 -1 0
-5 -5 -6 -7 -8 -8 -9 -9 -10 -11 -12 -12 -12 -12 -12 -11 -11 -11 -12 -11 -12 -12 -12 -12 -12 -12 -11 -10 -10 -10 -10 -10 -10 -9 -9 -8 -7 -6 -5 -4 -2 -1 0
-5 -5 -6 -7 -7 -8 -8 -9 -10 -11 -11 -12 -12 -12 -12 -11 -11 -11 -11 -12 -12 -12 -12 -12 -12 -12 -11 -11 -11 -11 -11 -11 -10 -10 -9 -9 -8 -7 -5 -4 -2 -1 0
-5 -5 -6 -7 -7 -8 -8 -9 -9 -10 -11 -11 -11 -11 -11 -11 -11 -11 -11 -12 -12 -12 -13 -13 -12 -12 -12 -11 -11 -11 -11 -11 -11 -10 -10 -10 -9 -8 -6 -5 -3 -1 0
-5 -5 -6 -7 -7 -8 -8 -9 -9 -10 -10 -11 -11 -11 -12 -11 -11 -11 -11 -11 -12 -12 -13 -13 -13 -12 -12 -11 -12 -12 -12 -11 -11 -11 -11 -10 -10 -9 -7 -5 -4 -2 0
-5 -5 -6 -6 -7 -8 -8 -8 -9 -9 -10 -10 -11 -11 -11 -11 -11 -11 -11 -11 -11 -12 -13 -13 -13 -12 -12 -11 -12 -12 -12 -11 -11 -11 -11 -11 -10 -9 -7 -6 -4 -2 -1
-5 -5 -6 -6 -7 -7 -8 -8 -9 -9 -9 -10 -11 -11 -11 -11 -10 -11 -10 -11 -11 -12 -12 -13 -13 -12 -12 -12 -12 -12 -12 -11 -11 -11 -11 -10 -9 -8 -7 -5 -4 -3 -1
-4 -5 -6 -6 -7 -7 -7 -8 -8 -9 -9 -10 -10 -10 -10 -10 -10 -10 -10 -10 -11 -12 -12 -12 -13 -12 -12 -12 -13 -13 -12 -12 -11 -10 -10 -10 -9 -8 -7 -5 -4 -3 -1
-4 -5 -6 -6 -7 -7 -7 -8 -8 -8 -9 -9 -10 -10 -10 -10 -10 -10 -10 -11 -11 -12 -12 -13 -13 -13 -13 -13 -13 -13 -13 -12 -11 -11 -11 -10 -9 -8 -7 -5 -4 -3 -2
-4 -5 -6 -6 -6 -7 -7 -7 -7 -8 -8 -10 -10 -10 -10 -10 -10 -10 -10 -11 -11 -12 -13 -13 -13 -13 -13 -13 -13 -13 -13 -12 -12 -12 -12 -11 -10 -8 -6 -5 -4 -3 -2
-4 -5 -5 -6 -6 -6 -6 -6 -7 -7 -8 -10 -10 -10 -10 -10 -9 -10 -10 -11 -11 -12 -13 -13 -13 -13 -13 -13 -14 -13 -13 -13 -12 -12 -12 -12 -11 -9 -7 -5 -4 -3 -2
-4 -5 -5 -5 -6 -6 -6 -6 -6 -6 -8 -10 -10 -11 -10 -10 -10 -10 -10 -10 -11 -12 -12 -13 -13 -13 -13 -13 -13 -13 -13 -13 -13 -13 -12 -12 -10 -9 -7 -5 -4 -3 -2
-4 -5 -5 -5 -5 -5 -5 -5 -6 -6 -7 -9 -10 -11 -11 -10 -10 -10 -10 -11 -11 -12 -12 -12 -13 -13 -13 -13 -13 -13 -13 -13 -13 -13 -12 -11 -10 -9 -8 -6 -4 -3 -3
-4 -4 -5 -5 -5 -5 -5 -5 -5 -6 -6 -7 -8 -10 -11 -11 -11 -10 -10 -11 -11 -11 -11 -12 -12 -13 -13 -13 -13 -13 -14 -13 -13 -13 -12 -11 -11 -10 -9 -7 -5 -4 -3
-4 -4 -5 -5 -5 -5 -5 -5 -5 -5 -6 -6 -7 -8 -10 -11 -11 -11 -11 -10 -11 -11 -11 -12 -12 -12 -13 -13 -13 -13 -13 -13 -13 -13 -12 -12 -11 -11 -10 -8 -7 -5 -4
-4 -4 -4 -5 -5 -5 -5 -5 -5 -5 -5 -6 -6 -7 -8 -10 -10 -10 -10 -10 -10 -11 -11 -12 -12 -12 -12 -12 -13 -13 -13 -13 -13 -13 -12 -12 -12 -11 -10 -10 -8 -7 -5
-3 -4 -4 -5 -5 -5 -5 -5 -5 -5 -6 -6 -6 -6 -7 -8 -9 -10 -10 -10 -11 -11 -11 -11 -11 -11 -11 -12 -12 -12 -12 -13 -13 -13 -13 -12 -12 -11 -11 -10 -10 -8 -7
-3 -4 -4 -5 -5 -5 -5 -5 -5 -6 -6 -6 -7 -7 -7 -8 -9 -9 -10 -11 -11 -11 -11 -11 -11 -11 -11 -11 -11 -12 -12 -12 -12 -13 -12 -12 -12 -12 -11 -11 -10 -9 -8
-3 -4 -4 -4 -5 -5 -5 -5 -6 -6 -6 -7 -7 -7 -8 -8 -9 -10 -10 -11 -11 -11 -10 -10 -10 -10 -10 -10 -11 -11 -11 -12 -12 -12 -12 -12 -12 -12 -12 -11 -11 -10 -9
-3 -3 -4 -4 -5 -5 -5 -5 -6 -6 -6 -7 -7 -7 -8 -8 -9 -9 -10 -10 -11 -10 -10 -10 -10 -10 -10 -10 -10 -10 -11 -11 -12 -12 -12 -12 -12 -12 -12 -12 -11 -11 -10
-3 -3 -4 -4 -5 -5 -5 -5 -6 -6 -7 -7 -7 -7 -8 -8 -9 -9 -10 -10 -10 -10 -10 -10 -10 -10 -10 -10 -10 -10 -10 -11 -11 -12 -12 -12 -12 -12 -12 -12 -12 -12 -11
-3 -3 -4 -4 -5 -5 -5 -5 -6 -6 -7 -7 -7 -8 -8 -8 -9 -9 -9 -10 -10 -10 -10 -10 -10 -9 -9 -9 -9 -10 -10 -10 -11 -11 -12 -12 -12 -12 -12 -12 -12 -12 -12
-2 -3 -3 -4 -4 -5 -5 -5 -6 -6 -7 -7 -7 -8 -8 -8 -9 -9 -9 -9 -10 -10 -9 -9 -9 -9 -9 -9 -9 -9 -10 -10 -10 -11 -11 -12 -12 -12 -12 -12 -12 -12 -12
-2 -3 -3 -4 -4 -5 -5 -5 -6 -6 -7 -7 -8 -8 -8 -9 -9 -9 -9 -9 -9 -9 -9 -9 -9 -9 -9 -9 -9 -9 -9 -10 -10 -10 -11 -11 -12 -12 -12 -12 -12 -12 -12
Wind_Speed
6 7 8 9 10 11 10 12 13 14 16 15 16 16 16 16 16 14 15 15 15 14 13 13 13 13 10 9 9 9 9 10 13 14 14 14 16 15 14 13 13 13 13
6 7 8 9 9 10 11 12 13 14 15 15 16 15 15 15 15 14 14 14 14 14 15 14 15 13 15 12 11 12 11 11 12 16 15 14 16 15 14 14 12 11 11
6 7 8 9 10 11 11 12 13 13 14 15 15 15 15 14 15 13 12 12 13 13 14 14 15 15 16 14 14 13 12 12 12 13 14 13 12 12 12 12 12 11 11
5 7 8 9 10 11 11 12 12 13 13 14 15 15 15 14 13 11 9 10 11 13 13 14 14 15 16 17 14 14 13 13 12 12 12 12 11 11 8 7 8 8 9
5 6 7 8 10 10 11 11 12 12 13 14 15 16 15 13 13 11 5 8 10 12 13 14 15 18 21 17 13 14 14 12 11 11 11 10 9 9 7 6 7 7 8
5 6 7 8 9 10 11 11 12 12 13 13 14 15 16 13 20 20 9 8 10 12 13 14 15 16 21 21 19 19 17 14 12 10 10 10 11 10 9 8 7 5 5
5 6 7 8 9 10 11 11 12 12 13 13 14 14 15 17 23 23 15 11 11 12 13 14 13 16 20 15 14 18 17 17 15 12 11 11 12 11 11 10 8 6 5
6 6 7 7 9 10 11 11 12 12 12 12 13 15 15 17 22 24 19 12 10 11 12 14 15 16 17 18 14 14 14 11 12 11 10 10 10 11 10 9 10 10 9
6 7 7 7 9 10 11 12 12 12 12 12 13 14 15 16 21 24 21 11 9 11 11 13 15 16 22 24 17 15 16 13 13 16 15 13 13 13 11 7 7 5 4
6 6 7 8 9 10 11 12 12 11 12 12 13 13 14 15 20 23 22 9 9 10 11 12 15 20 23 23 16 15 16 15 14 14 12 12 10 10 10 6 6 5 4
5 6 8 8 9 10 11 11 11 11 12 12 13 14 14 15 17 20 20 10 8 10 10 11 12 22 22 22 19 15 18 17 13 12 10 9 9 8 7 7 5 5 5
6 7 8 8 8 8 10 11 10 10 11 12 12 13 12 14 15 15 17 15 12 10 10 10 13 20 20 20 18 21 22 18 11 11 10 10 10 10 9 9 7 7 7
6 7 7 8 8 8 9 10 9 8 9 10 11 11 12 12 13 14 14 15 14 9 8 13 15 18 17 15 19 22 18 13 12 12 12 11 10 11 10 8 7 6 6
6 6 6 7 7 7 7 7 7 7 8 10 10 11 12 12 12 11 10 11 11 9 9 11 13 14 13 15 16 15 13 13 13 12 12 12 11 11 10 9 7 6 3
7 6 6 6 6 7 6 6 7 6 8 10 9 10 11 12 16 20 14 11 10 10 10 8 8 9 10 11 11 12 12 13 13 13 13 12 12 12 11 10 8 6 4
7 6 4 4 5 5 6 6 5 6 10 10 11 12 11 15 19 19 18 16 15 15 10 8 9 9 10 10 11 12 12 13 13 13 13 13 12 12 11 10 9 7 6
8 6 4 4 4 5 5 6 7 6 6 7 10 13 14 17 17 17 17 15 14 14 9 9 9 9 9 9 9 10 11 12 12 13 13 13 13 12 12 11 11 9 8
9 7 6 5 4 4 4 5 5 7 7 6 7 10 14 16 15 15 16 12 10 10 9 10 9 8 8 8 8 9 10 11 12 12 13 13 13 12 12 12 11 11 9
9 7 6 5 4 4 4 4 5 6 6 6 7 8 13 13 12 13 13 9 9 10 10 10 10 9 8 7 7 7 8 9 11 11 12 13 12 12 12 12 11 14 11
9 11 8 5 5 4 4 4 4 4 5 5 6 7 9 9 8 9 9 8 9 9 10 10 10 9 8 7 6 6 7 8 9 10 11 11 12 12 12 13 12 11 10
9 10 11 7 5 5 4 4 3 4 4 5 5 6 10 7 7 8 8 8 9 9 10 10 10 9 8 6 5 5 6 6 7 8 9 10 11 11 11 11 11 10 10
10 9 8 7 6 5 5 4 3 3 4 4 5 5 8 6 6 7 7 8 9 9 9 10 10 9 8 7 6 5 4 4 5 6 8 9 9 10 10 11 11 10 10
11 10 9 7 6 7 6 5 4 3 3 3 4 4 5 5 6 7 7 8 9 9 10 10 10 10 9 8 6 4 3 3 3 4 6 7 8 9 9 10 12 11 11
12 11 10 8 7 7 6 5 5 4 3 3 3 4 4 5 5 7 7 8 9 9 11 11 11 13 15 11 7 4 4 3 2 1 3 5 7 7 8 9 10 11 10
13 12 11 9 9 8 7 6 5 4 3 3 3 3 4 4 5 6 7 7 10 10 12 13 12 14 16 15 10 6 4 6 5 2 1 2 5 6 7 8 9 9 10
14 13 11 10 9 8 8 7 6 5 4 3 3 3 3 4 4 5 6 7 9 10 11 12 16 19 18 13 10 7 3 6 8 6 3 1 3 5 6 7 8 9 10
Wind_Direction
315 317 318 321 320 319 318 320 322 322 324 326 327 328 330 331 331 331 335 336 335 336 337 334 332 325 321 318 312 303 298 292 291 294 297 299 298 294 288 278 271 266 263
309 312 316 318 320 320 321 321 321 323 325 326 327 327 328 329 327 326 331 333 333 333 333 332 331 331 330 328 324 316 310 303 297 298 299 300 299 297 289 279 268 258 253
301 307 312 318 321 321 321 320 321 323 324 326 326 325 325 325 323 319 326 328 332 331 330 330 329 328 329 330 328 324 319 313 303 297 299 301 300 298 293 279 265 253 250
295 302 309 317 321 319 319 319 321 322 324 324 323 322 322 321 319 307 310 323 329 332 331 330 328 325 326 327 329 329 325 317 309 303 302 305 304 307 294 285 274 251 244
287 297 306 313 316 316 317 318 320 321 322 321 321 321 321 322 318 314 295 323 331 334 335 332 327 327 329 330 332 332 329 322 315 312 308 310 316 323 318 307 292 279 248
277 288 296 304 307 310 313 318 320 320 321 320 318 317 319 320 321 332 337 333 336 337 337 334 330 329 330 330 331 333 331 326 324 319 311 312 316 321 321 317 309 287 239
267 280 288 296 303 308 312 316 319 319 317 316 316 317 317 319 323 328 333 333 333 337 337 334 334 333 334 328 335 336 329 326 329 324 312 312 313 319 319 317 315 305 289
261 272 280 290 297 304 310 314 317 317 315 312 314 318 319 319 323 325 328 325 327 334 334 333 334 334 333 345 343 335 329 330 328 322 314 312 311 313 313 306 300 297 282
253 265 276 283 291 299 306 311 317 315 312 311 316 319 320 320 320 321 326 321 326 330 335 336 337 338 341 350 348 339 335 338 336 331 329 325 324 324 330 322 312 297 270
247 264 276 282 287 296 304 311 314 314 312 316 318 321 319 317 319 321 329 328 329 333 339 339 340 346 349 352 351 345 342 343 338 334 333 333 333 331 338 332 315 302 295
243 266 276 282 290 296 302 307 310 312 314 317 320 323 324 327 328 329 337 348 342 339 341 341 343 349 353 353 355 352 349 348 338 335 336 340 342 341 338 328 304 283 284
237 263 276 284 290 291 301 307 311 316 319 321 323 327 332 336 338 339 348 355 354 346 343 343 345 350 353 355 357 357 356 354 348 345 347 350 349 345 338 326 306 280 260
230 257 275 286 290 294 302 309 316 323 324 324 328 331 334 338 343 350 352 351 353 352 342 342 346 351 352 354 357 360 359 356 354 353 352 350 346 341 339 336 327 305 272
228 252 272 284 294 302 305 307 315 322 324 328 334 334 335 342 352 359 1 356 353 351 342 338 344 349 354 356 358 359 359 359 357 353 350 349 350 352 357 354 350 346 335
223 244 264 277 290 300 306 308 311 315 323 330 332 332 336 343 351 359 6 1 359 356 345 341 346 350 354 357 358 360 0 360 359 356 356 356 358 359 1 1 1 2 13
214 232 253 275 291 301 308 310 301 307 325 335 337 338 337 343 348 355 1 1 359 359 354 351 350 349 351 352 354 356 359 1 358 357 358 360 360 1 2 4 8 12 14
206 218 240 261 284 300 310 315 320 322 323 336 346 346 345 348 351 354 358 356 357 360 357 353 350 346 344 346 350 353 356 357 357 358 1 1 1 3 6 8 10 10 10
201 212 228 246 265 281 293 303 311 320 326 335 344 347 349 352 354 357 359 357 357 360 355 350 348 343 340 340 344 348 351 355 360 360 2 3 3 5 8 9 11 10 9
195 201 212 230 246 263 272 285 300 310 316 324 333 345 350 351 355 0 2 1 353 349 348 345 344 342 338 335 336 340 345 353 359 359 3 3 4 7 9 9 9 11 15
195 201 206 219 231 243 249 266 290 308 318 326 337 342 343 349 354 355 356 353 348 344 341 340 339 338 337 333 330 333 340 351 359 3 4 4 4 7 8 9 11 11 13
186 193 203 211 221 228 233 246 270 294 311 322 331 334 346 348 346 346 346 346 344 339 336 335 334 335 336 331 325 325 330 343 356 1 4 5 5 7 9 10 12 15 16
181 184 190 200 208 215 222 230 247 272 297 311 326 333 344 347 344 343 341 340 338 334 332 330 330 333 333 329 320 315 319 331 348 358 3 6 7 9 11 14 15 18 22
181 183 188 195 202 209 215 220 228 248 277 302 318 331 341 343 341 339 337 336 335 333 333 333 332 334 336 328 316 295 290 304 332 352 358 6 10 13 15 17 20 23 27
182 184 188 191 195 202 207 209 214 227 252 278 302 323 333 333 331 333 334 333 334 333 335 335 333 334 337 336 324 296 256 240 231 341 3 10 14 15 19 19 23 24 29
182 185 188 191 194 198 201 203 206 213 227 250 280 306 319 325 329 331 333 333 334 334 335 337 337 338 337 335 330 318 252 211 201 174 97 25 27 23 24 25 26 30 33
182 185 187 189 192 195 197 199 201 204 212 225 250 282 302 314 322 328 331 334 335 333 334 336 338 339 337 337 331 327 252 199 191 180 156 88 42 33 28 33 33 36 39
Height
1547 1543 1538 1533 1528 1523 1517 1512 1506 1500 1495 1489 1483 1477 1471 1465 1460 1454 1448 1441 1435 1429 1423 1417 1412 1407 1402 1397 1392 1388 1384 1380 1374 1368 1365 1362 1360 1358 1356 1355 1354 1355 1357
1544 1540 1536 1531 1525 1520 1515 1509 1503 1498 1492 1486 1480 1475 1469 1463 1457 1452 1446 1440 1433 1427 1421 1416 1410 1405 1400 1395 1390 1385 1381 1376 1372 1365 1360 1357 1354 1352 1350 1349 1349 1351 1352
1541 1537 1533 1528 1523 1518 1512 1506 1500 1495 1489 1484 1478 1472 1466 1460 1455 1450 1444 1438 1432 1426 1419 1414 1408 1404 1398 1393 1388 1383 1378 1373 1368 1363 1357 1353 1349 1347 1345 1344 1345 1346 1348
1537 1534 1530 1525 1520 1515 1510 1504 1498 1492 1487 1481 1475 1469 1463 1458 1452 1447 1442 1436 1430 1424 1418 1412 1407 1402 1397 1391 1386 1380 1375 1369 1364 1360 1354 1349 1346 1343 1341 1341 1342 1343 1344
1534 1531 1527 1523 1518 1513 1507 1502 1496 1490 1484 1478 1472 1466 1461 1455 1449 1445 1439 1434 1428 1422 1416 1410 1405 1400 1395 1390 1384 1378 1372 1366 1361 1357 1352 1347 1343 1340 1339 1338 1338 1339 1341
1531 1528 1524 1520 1516 1510 1505 1499 1494 1488 1482 1476 1469 1463 1458 1452 1447 1443 1437 1432 1427 1421 1414 1408 1403 1398 1392 1386 1381 1375 1369 1364 1359 1354 1349 1345 1341 1339 1336 1335 1336 1337 1339
1527 1525 1521 1518 1513 1508 1503 1497 1492 1486 1480 1474 1467 1461 1456 1450 1445 1441 1435 1430 1425 1419 1413 1408 1402 1396 1390 1383 1377 1371 1365 1360 1356 1351 1346 1342 1339 1336 1334 1333 1333 1334 1334
1524 1522 1519 1515 1510 1506 1500 1495 1489 1484 1478 1472 1466 1460 1455 1449 1443 1438 1433 1428 1422 1417 1412 1407 1401 1395 1389 1382 1375 1368 1362 1357 1351 1346 1343 1339 1336 1333 1332 1331 1331 1331 1332
1520 1518 1516 1512 1508 1503 1498 1492 1487 1482 1476 1470 1465 1459 1454 1448 1441 1435 1430 1425 1420 1415 1411 1405 1400 1394 1388 1381 1373 1366 1360 1354 1348 1343 1338 1334 1332 1330 1329 1330 1330 1331 1331
1517 1515 1512 1509 1505 1500 1495 1490 1485 1480 1474 1469 1464 1459 1453 1446 1440 1434 1428 1423 1418 1414 1409 1404 1399 1393 1386 1380 1373 1366 1359 1352 1345 1339 1335 1332 1329 1327 1327 1327 1327 1329 1329
1513 1512 1509 1506 1502 1498 1493 1488 1483 1478 1473 1468 1462 1457 1452 1446 1439 1433 1428 1422 1417 1412 1407 1402 1397 1392 1385 1379 1373 1366 1360 1352 1345 1339 1334 1330 1328 1326 1325 1325 1326 1327 1329
1509 1508 1506 1503 1499 1495 1491 1486 1481 1476 1470 1465 1460 1456 1451 1445 1439 1433 1428 1422 1417 1412 1407 1402 1397 1391 1385 1379 1373 1366 1359 1352 1345 1340 1335 1330 1327 1324 1323 1324 1325 1326 1328
1505 1504 1502 1500 1496 1492 1488 1484 1479 1473 1468 1463 1459 1454 1449 1444 1439 1433 1427 1422 1417 1411 1406 1401 1396 1391 1385 1379 1374 1367 1359 1353 1347 1341 1336 1332 1328 1325 1323 1323 1324 1326 1328
1501 1500 1499 1497 1494 1491 1486 1482 1477 1471 1466 1462 1458 1453 1449 1444 1439 1434 1428 1423 1417 1412 1406 1401 1396 1391 1386 1381 1375 1369 1362 1357 1351 1345 1339 1334 1330 1327 1324 1324 1325 1326 1328
1497 1496 1495 1493 1491 1488 1485 1481 1476 1471 1466 1461 1456 1452 1448 1444 1440 1435 1430 1424 1418 1413 1407 1402 1397 1392 1387 1382 1377 1372 1366 1360 1354 1348 1342 1337 1333 1329 1327 1326 1326 1327 1329
1492 1492 1492 1490 1488 1486 1483 1480 1475 1471 1466 1461 1456 1451 1448 1444 1439 1434 1430 1424 1419 1414 1408 1403 1398 1394 1389 1385 1380 1375 1370 1364 1358 1353 1347 1342 1337 1333 1330 1328 1328 1328 1330
1488 1488 1488 1486 1485 1483 1481 1478 1474 1471 1466 1460 1455 1450 1446 1441 1437 1433 1429 1424 1420 1415 1410 1405 1401 1396 1392 1388 1383 1379 1374 1369 1364 1358 1353 1347 1342 1338 1335 1332 1331 1331 1331
1482 1483 1483 1482 1481 1480 1478 1475 1472 1468 1464 1460 1455 1449 1444 1440 1435 1431 1428 1424 1420 1416 1412 1407 1403 1399 1394 1390 1386 1382 1378 1373 1368 1363 1358 1353 1348 1344 1340 1337 1335 1334 1334
1476 1478 1478 1478 1477 1476 1475 1473 1470 1467 1463 1459 1454 1449 1444 1439 1435 1431 1428 1424 1420 1417 1413 1409 1405 1401 1396 1392 1388 1385 1381 1377 1373 1368 1363 1358 1354 1350 1346 1343 1341 1339 1338
1471 1472 1473 1474 1473 1473 1472 1470 1468 1465 1461 1457 1453 1449 1443 1439 1435 1431 1427 1424 1421 1418 1414 1411 1407 1403 1398 1394 1391 1387 1384 1381 1377 1373 1368 1364 1360 1356 1352 1349 1346 1344 1342
1465 1466 1468 1469 1469 1469 1469 1467 1465 1463 1460 1456 1452 1448 1443 1439 1435 1431 1427 1425 1422 1419 1416 1412 1408 1404 1400 1396 1393 1390 1387 1384 1381 1378 1374 1370 1366 1362 1358 1355 1352 1350 1348
1458 1460 1462 1464 1465 1465 1465 1464 1463 1460 1458 1455 1451 1447 1443 1439 1435 1431 1428 1425 1422 1420 1417 1413 1409 1406 1402 1398 1395 1392 1389 1387 1384 1382 1378 1375 1371 1368 1364 1361 1358 1356 1354
1452 1454 1456 1458 1460 1461 1461 1460 1459 1458 1456 1453 1450 1446 1443 1439 1435 1431 1428 1425 1422 1420 1417 1414 1410 1407 1403 1400 1396 1393 1391 1389 1387 1385 1382 1379 1376 1373 1370 1367 1364 1361 1360
1445 1448 1450 1453 1454 1456 1456 1457 1456 1455 1453 1451 1448 1445 1442 1438 1434 1431 1428 1425 1422 1420 1418 1415 1411 1408 1404 1401 1397 1394 1392 1390 1388 1387 1385 1383 1380 1378 1375 1372 1369 1367 1365
1438 1441 1444 1446 1449 1450 1452 1452 1452 1452 1450 1449 1446 1443 1440 1437 1434 1430 1427 1424 1422 1420 1418 1415 1412 1409 1405 1402 1398 1395 1393 1391 1389 1388 1387 1386 1384 1382 1380 1377 1375 1372 1370
1430 1434 1437 1440 1443 1445 1447 1448 1448 1448 1447 1446 1444 1441 1439 1436 1433 1429 1426 1424 1421 1419 1417 1415 1412 1409 1406 1403 1399 1396 1394 1392 1390 1389 1389 1388 1387 1385 1384 1382 1380 1378 1376